Gulf - Magdalen: Past 24 Hour Conditions

 

Blanc-Sablon Airport

12:00 PM AST 30 August 2014
This table is a summary of hourly weather conditions for the past 24 hours.
Date / Time
(AST)
Wind(knots) Conditions Visibility(km) Pressure(kPa) Air tempC) Relative humidity(%) Dew pointC)
30 August 2014
12:00 W 11 Mostly Cloudy 13 101.2 14 85 11
11:00 WSW 13 Partly Cloudy 24 101.3 13 83 10
10:00 WSW 11 gust 17 Partly Cloudy 24 101.3 12 84 10
9:00 WSW 9 Mainly Sunny 24 101.4 11 88 10
8:00 WSW 6 Mainly Sunny 24 101.4 10 90 9
7:00 WSW 3 Fog 2 101.4 9 99 9
6:00 E 2 Fog 0.4 101.4 7 99 7
5:00 calm Fog 5 101.4 7 99 7
4:00 NNE 4 Fog 1 101.5 7 99 7
3:00 E 2 Fog 0.2 101.4 9 99 8
2:00 ENE 3 Fog 0.2 101.5 8 98 8
1:00 SE 3 Mostly Cloudy 24 101.5 7 97 7
0:00 ENE 3 Mainly Clear 24 101.6 7 95 6
29 August 2014
23:00 ENE 3 Clear 24 101.6 6 97 5
22:00 ENE 3 Clear 24 101.6 6 94 5
21:00 calm Mainly Clear 24 101.6 6 91 5
20:00 NW 4 Mainly Clear 24 101.6 8 86 5
19:00 NW 4 Mainly Clear 24 101.6 7 87 5
18:00 W 3 Mainly Sunny 24 101.5 10 78 6
17:00 WSW 5 Mainly Sunny 24 101.5 10 73 6
16:00 WSW 5 Mainly Sunny 24 101.5 10 61 3
15:00 SW 5 Sunny 24 101.5 10 65 4
14:00 WSW 7 Sunny 24 101.5 10 72 5
13:00 WSW 9 Sunny 24 101.5 10 68 4
12:00 WSW 9 Sunny 24 101.5 9 69 3
 
Map of Atlantic - Newfoundland marine weather areas Southwestern Grand Banks - 44138 Banquereau - 44139 Tail of the Bank - 44140 Nickerson Bank - 44251 Northeast Burgeo Bank - 44255 Blanc-Sablon Airport Cap Whittle Chevery Natashquan Airport Heath Point Miscou Island Grand Étang Ingonish Beach North Mountain St.Paul Island J.A. Douglas McCurdy Sydney Airport Charlottetown Airport East Point North Cape Argentia Bonavista Burgeo Cape Race Corner Brook Daniel's Harbour Englee Ferolle Point La Scie Port aux Basques Rocky Harbour Sagona Island St. Anthony Airport St. John's Int'l Airport St. Lawrence Stephenville Airport Twillingate Winterland Wreckhouse Cartwright Airport Mary's Harbour Grates Cove Pool's Island Marticot Island Long Pond Îles de la Madeleine Airport
Legend: buoyBuoy land stationLand Station